Orbital Elements at Epoch 2459200.5 (2020-Dec-17.0) TDB
Reference: JPL 18 (heliocentric ecliptic J2000)
Element | Value | Uncertainty (1-sigma) | Units |
e | .08784667357015988 | 3.6956e-08 | |
a | 2.298511187050109 | 1.0839e-08 | au |
q | 2.096594625103958 | 8.9993e-08 | au |
i | .9949503484990554 | 3.4989e-06 | deg |
node | 83.59137559662301 | 0.00028887 | deg |
peri | 343.6952234158618 | 0.00029064 | deg |
M | 311.7296707584456 | 3.2414e-05 | deg |
tp | 2459371.165650305675 (2021-Jun-05.66565031) | 0.00011517 | TDB |
period | 1272.824011673648 3.48 | 9.0035e-06 2.465e-08 | d yr |
n | .2828356447539301 | 2.0007e-09 | deg/d |
Q | 2.500427748996261 | 1.1791e-08 | au |
|
| | Orbit Determination Parameters
Additional Information
|